owner,sensor,date,latitude,longitude,vertical_datum,direction_of_sea_water_velocity,sea_water_speed,upward_sea_water_velocity,qcFlag 
TABS,ioos:station:wmo:42050:1,1997-08-01T00:00:00Z,28.8425,-94.2433,2.0,76.40303821,5.061867244,-99999.0,'11133222,11111222,99999999' 
TABS,ioos:station:wmo:42050:1,1997-08-01T00:30:00Z,28.8425,-94.2433,2.0,51.30903282,5.7268927,-99999.0,'11133222,11111222,99999999' 
TABS,ioos:station:wmo:42050:1,1997-08-01T01:00:00Z,28.8425,-94.2433,2.0,37.60052787,6.588535497,-99999.0,'11133222,11111222,99999999' 
TABS,ioos:station:wmo:42050:1,1997-08-01T01:30:00Z,28.8425,-94.2433,2.0,25.21524461,8.732032982,-99999.0,'11133222,11111222,99999999' 
TABS,ioos:station:wmo:42050:1,1997-08-01T02:00:00Z,28.8425,-94.2433,2.0,16.76593018,8.250721181,-99999.0,'11133222,11111222,99999999' 
TABS,ioos:station:wmo:42050:1,1997-08-01T02:30:00Z,28.8425,-94.2433,2.0,14.23562955,9.068461832,-99999.0,'11133222,11111222,99999999' 
TABS,ioos:station:wmo:42050:1,1997-08-01T03:00:00Z,28.8425,-94.2433,2.0,7.90589947,10.83295897,-99999.0,'11111222,11111222,99999999' 
TABS,ioos:station:wmo:42050:1,1997-08-01T03:30:00Z,28.8425,-94.2433,2.0,23.09627459,11.01268814,-99999.0,'11111222,11111222,99999999' 
TABS,ioos:station:wmo:42050:1,1997-08-01T04:00:00Z,28.8425,-94.2433,2.0,8.899245999,15.38520068,-99999.0,'11111222,11111222,99999999' 
TABS,ioos:station:wmo:42050:1,1997-08-01T04:30:00Z,28.8425,-94.2433,2.0,21.21050352,21.42109708,-99999.0,'11111222,11111222,99999999' 
TABS,ioos:station:wmo:42050:1,1997-08-01T05:00:00Z,28.8425,-94.2433,2.0,21.38234001,22.07976676,-99999.0,'11111222,11111222,99999999' 
TABS,ioos:station:wmo:42050:1,1997-08-01T05:30:00Z,28.8425,-94.2433,2.0,19.86918773,20.59604088,-99999.0,'11111222,11111222,99999999' 
TABS,ioos:station:wmo:42050:1,1997-08-01T06:00:00Z,28.8425,-94.2433,2.0,20.32793931,21.4456196,-99999.0,'11111222,11111222,99999999' 
TABS,ioos:station:wmo:42050:1,1997-08-01T06:30:00Z,28.8425,-94.2433,2.0,15.60537295,23.82835706,-99999.0,'11111222,11111222,99999999' 
TABS,ioos:station:wmo:42050:1,1997-08-01T07:00:00Z,28.8425,-94.2433,2.0,12.33478867,19.52059938,-99999.0,'11111222,11111222,99999999' 
TABS,ioos:station:wmo:42050:1,1997-08-01T07:30:00Z,28.8425,-94.2433,2.0,11.82788791,18.88087127,-99999.0,'11111222,11111222,99999999' 
TABS,ioos:station:wmo:42050:1,1997-08-01T08:00:00Z,28.8425,-94.2433,2.0,19.58856393,23.56374334,-99999.0,'11111222,11111222,99999999' 
TABS,ioos:station:wmo:42050:1,1997-08-01T08:30:00Z,28.8425,-94.2433,2.0,28.37117517,25.40093305,-99999.0,'11111222,11111222,99999999' 
TABS,ioos:station:wmo:42050:1,1997-08-01T09:00:00Z,28.8425,-94.2433,2.0,30.97197236,24.32878953,-99999.0,'11111222,11111222,99999999' 
TABS,ioos:station:wmo:42050:1,1997-08-01T09:30:00Z,28.8425,-94.2433,2.0,37.48042755,25.71945956,-99999.0,'11111222,11111222,99999999' 
TABS,ioos:station:wmo:42050:1,1997-08-01T10:00:00Z,28.8425,-94.2433,2.0,41.07917713,24.71466164,-99999.0,'11111222,11111222,99999999' 
TABS,ioos:station:wmo:42050:1,1997-08-01T10:30:00Z,28.8425,-94.2433,2.0,41.73630313,25.9575673,-99999.0,'11111222,11111222,99999999' 
TABS,ioos:station:wmo:42050:1,1997-08-01T11:00:00Z,28.8425,-94.2433,2.0,45.00010523,22.54256418,-99999.0,'11111222,11111222,99999999' 
TABS,ioos:station:wmo:42050:1,1997-08-01T11:30:00Z,28.8425,-94.2433,2.0,45.00010523,22.96682825,-99999.0,'11111222,11111222,99999999' 
TABS,ioos:station:wmo:42050:1,1997-08-01T12:00:00Z,28.8425,-94.2433,2.0,52.91653554,25.20817526,-99999.0,'11111222,11111222,99999999' 
TABS,ioos:station:wmo:42050:1,1997-08-01T12:30:00Z,28.8425,-94.2433,2.0,58.21915922,24.89212124,-99999.0,'11111222,11111222,99999999' 
TABS,ioos:station:wmo:42050:1,1997-08-01T13:00:00Z,28.8425,-94.2433,2.0,66.36013215,24.88855962,-99999.0,'11111222,11111222,99999999' 
TABS,ioos:station:wmo:42050:1,1997-08-01T13:30:00Z,28.8425,-94.2433,2.0,74.88672275,25.16024046,-99999.0,'11111222,11111222,99999999' 
TABS,ioos:station:wmo:42050:1,1997-08-01T14:00:00Z,28.8425,-94.2433,2.0,77.46839469,21.98373262,-99999.0,'11111222,11111222,99999999' 
TABS,ioos:station:wmo:42050:1,1997-08-01T14:30:00Z,28.8425,-94.2433,2.0,80.52866204,20.84414786,-99999.0,'11111222,11111222,99999999' 
TABS,ioos:station:wmo:42050:1,1997-08-01T15:00:00Z,28.8425,-94.2433,2.0,78.9598514,17.91148514,-99999.0,'11111222,11111222,99999999' 
TABS,ioos:station:wmo:42050:1,1997-08-01T15:30:00Z,28.8425,-94.2433,2.0,81.30332279,16.73237879,-99999.0,'11111222,11111222,99999999' 
TABS,ioos:station:wmo:42050:1,1997-08-01T16:00:00Z,28.8425,-94.2433,2.0,83.9016446,15.43736053,-99999.0,'11111222,11111222,99999999' 
TABS,ioos:station:wmo:42050:1,1997-08-01T16:30:00Z,28.8425,-94.2433,2.0,80.52285841,12.69324624,-99999.0,'11111222,11111222,99999999' 
TABS,ioos:station:wmo:42050:1,1997-08-01T17:00:00Z,28.8425,-94.2433,2.0,93.69296133,11.6441788,-99999.0,'11111222,11111222,99999999' 
TABS,ioos:station:wmo:42050:1,1997-08-01T17:30:00Z,28.8425,-94.2433,2.0,97.22260717,9.465104331,-99999.0,'11133222,11111222,99999999' 
TABS,ioos:station:wmo:42050:1,1997-08-01T18:00:00Z,28.8425,-94.2433,2.0,109.0003049,9.613792176,-99999.0,'11133222,11111222,99999999' 
TABS,ioos:station:wmo:42050:1,1997-08-01T18:30:00Z,28.8425,-94.2433,2.0,116.9547493,9.861287948,-99999.0,'11133222,11111222,99999999' 
TABS,ioos:station:wmo:42050:1,1997-08-01T19:00:00Z,28.8425,-94.2433,2.0,126.5151504,10.01619189,-99999.0,'11111222,11111222,99999999' 
TABS,ioos:station:wmo:42050:1,1997-08-01T19:30:00Z,28.8425,-94.2433,2.0,143.1492016,11.92200067,-99999.0,'11111222,11111222,99999999' 
TABS,ioos:station:wmo:42050:1,1997-08-01T20:00:00Z,28.8425,-94.2433,2.0,138.5273546,10.34335536,-99999.0,'11111222,11111222,99999999' 
TABS,ioos:station:wmo:42050:1,1997-08-01T20:30:00Z,28.8425,-94.2433,2.0,155.7999165,11.27043921,-99999.0,'11111222,11111222,99999999' 
TABS,ioos:station:wmo:42050:1,1997-08-01T21:00:00Z,28.8425,-94.2433,2.0,164.5436099,11.74475628,-99999.0,'11111222,11111222,99999999' 
TABS,ioos:station:wmo:42050:1,1997-08-01T21:30:00Z,28.8425,-94.2433,2.0,173.6648227,12.14415497,-99999.0,'11111222,11111222,99999999' 
TABS,ioos:station:wmo:42050:1,1997-08-01T22:00:00Z,28.8425,-94.2433,2.0,187.7255983,14.43099442,-99999.0,'11111222,11111222,99999999' 
TABS,ioos:station:wmo:42050:1,1997-08-01T22:30:00Z,28.8425,-94.2433,2.0,198.8571574,12.43757613,-99999.0,'11111222,11111222,99999999' 
TABS,ioos:station:wmo:42050:1,1997-08-01T23:00:00Z,28.8425,-94.2433,2.0,213.4513128,9.995784111,-99999.0,'11133222,11111222,99999999' 
TABS,ioos:station:wmo:42050:1,1997-08-01T23:30:00Z,28.8425,-94.2433,2.0,228.50108,15.51459958,-99999.0,'11111222,11111222,99999999' 
TABS,ioos:station:wmo:42050:1,1997-08-02T00:00:00Z,28.8425,-94.2433,2.0,239.793212,11.54800849,-99999.0,'11111222,11111222,99999999' 
TABS,ioos:station:wmo:42050:1,1997-08-02T00:30:00Z,28.8425,-94.2433,2.0,247.7263774,16.91184792,-99999.0,'11111222,11111222,99999999' 
TABS,ioos:station:wmo:42050:1,1997-08-02T01:00:00Z,28.8425,-94.2433,2.0,262.6662483,16.37393355,-99999.0,'11111222,11111222,99999999' 
TABS,ioos:station:wmo:42050:1,1997-08-02T01:30:00Z,28.8425,-94.2433,2.0,270.0004209,18.03,-99999.0,'11111222,11111222,99999999' 
TABS,ioos:station:wmo:42050:1,1997-08-02T02:00:00Z,28.8425,-94.2433,2.0,287.4532118,19.37179651,-99999.0,'11111222,11111222,99999999' 
TABS,ioos:station:wmo:42050:1,1997-08-02T02:30:00Z,28.8425,-94.2433,2.0,292.9199222,21.03028768,-99999.0,'11111222,11111222,99999999' 
TABS,ioos:station:wmo:42050:1,1997-08-02T03:00:00Z,28.8425,-94.2433,2.0,303.5754814,20.74028206,-99999.0,'11111222,11111222,99999999' 
TABS,ioos:station:wmo:42050:1,1997-08-02T03:30:00Z,28.8425,-94.2433,2.0,304.240651,25.41476146,-99999.0,'11111222,11111222,99999999' 
TABS,ioos:station:wmo:42050:1,1997-08-02T04:00:00Z,28.8425,-94.2433,2.0,307.7864617,26.01532625,-99999.0,'11111222,11111222,99999999' 
TABS,ioos:station:wmo:42050:1,1997-08-02T04:30:00Z,28.8425,-94.2433,2.0,303.4806033,34.84095291,-99999.0,'11111222,11111222,99999999' 
TABS,ioos:station:wmo:42050:1,1997-08-02T05:00:00Z,28.8425,-94.2433,2.0,307.7075441,36.54190198,-99999.0,'11111222,11111222,99999999' 
TABS,ioos:station:wmo:42050:1,1997-08-02T05:30:00Z,28.8425,-94.2433,2.0,314.489875,35.71738092,-99999.0,'11111222,11111222,99999999' 
TABS,ioos:station:wmo:42050:1,1997-08-02T06:00:00Z,28.8425,-94.2433,2.0,318.1509175,34.60861887,-99999.0,'11111222,11111222,99999999' 
TABS,ioos:station:wmo:42050:1,1997-08-02T06:30:00Z,28.8425,-94.2433,2.0,320.192481,32.58282523,-99999.0,'11111222,11111222,99999999' 
TABS,ioos:station:wmo:42050:1,1997-08-02T07:00:00Z,28.8425,-94.2433,2.0,320.5508854,30.4848897,-99999.0,'11111222,11111222,99999999' 
TABS,ioos:station:wmo:42050:1,1997-08-02T07:30:00Z,28.8425,-94.2433,2.0,318.8948761,29.46246595,-99999.0,'11111222,11111222,99999999' 
TABS,ioos:station:wmo:42050:1,1997-08-02T08:00:00Z,28.8425,-94.2433,2.0,323.130399,29.05,-99999.0,'11111222,11111222,99999999' 
TABS,ioos:station:wmo:42050:1,1997-08-02T08:30:00Z,28.8425,-94.2433,2.0,328.8456904,24.20029958,-99999.0,'11111222,11111222,99999999' 
TABS,ioos:station:wmo:42050:1,1997-08-02T09:00:00Z,28.8425,-94.2433,2.0,336.0833908,21.68170888,-99999.0,'11111222,11111222,99999999' 
TABS,ioos:station:wmo:42050:1,1997-08-02T09:30:00Z,28.8425,-94.2433,2.0,338.1867986,17.65405619,-99999.0,'11111222,11111222,99999999' 
TABS,ioos:station:wmo:42050:1,1997-08-02T10:00:00Z,28.8425,-94.2433,2.0,343.9900561,14.57533876,-99999.0,'11111222,11111222,99999999' 
TABS,ioos:station:wmo:42050:1,1997-08-02T10:30:00Z,28.8425,-94.2433,2.0,344.157815,11.46550479,-99999.0,'11111222,11111222,99999999' 
TABS,ioos:station:wmo:42050:1,1997-08-02T11:00:00Z,28.8425,-94.2433,2.0,342.653066,9.994598541,-99999.0,'11133222,11111222,99999999' 
TABS,ioos:station:wmo:42050:1,1997-08-02T11:30:00Z,28.8425,-94.2433,2.0,351.1011749,7.692600341,-99999.0,'11133222,11111222,99999999' 
TABS,ioos:station:wmo:42050:1,1997-08-02T12:00:00Z,28.8425,-94.2433,2.0,334.8535937,5.600830296,-99999.0,'11133222,11111222,99999999' 
TABS,ioos:station:wmo:42050:1,1997-08-02T12:30:00Z,28.8425,-94.2433,2.0,332.2333911,3.198280788,-99999.0,'11133222,11111222,99999999' 
TABS,ioos:station:wmo:42050:1,1997-08-02T13:00:00Z,28.8425,-94.2433,2.0,328.5361404,3.141973902,-99999.0,'11133222,11111222,99999999' 
TABS,ioos:station:wmo:42050:1,1997-08-02T13:30:00Z,28.8425,-94.2433,2.0,338.9429094,4.146926573,-99999.0,'11133222,11111222,99999999' 
TABS,ioos:station:wmo:42050:1,1997-08-02T14:00:00Z,28.8425,-94.2433,2.0,338.9429094,4.146926573,-99999.0,'11133222,11111222,99999999' 
TABS,ioos:station:wmo:42050:1,1997-08-02T14:30:00Z,28.8425,-94.2433,2.0,344.1274086,3.254074369,-99999.0,'11133222,11111222,99999999' 
TABS,ioos:station:wmo:42050:1,1997-08-02T15:00:00Z,28.8425,-94.2433,2.0,335.8792837,1.468196172,-99999.0,'11133222,11111222,99999999' 
TABS,ioos:station:wmo:42050:1,1997-08-02T15:30:00Z,28.8425,-94.2433,2.0,338.198852,0.807774721,-99999.0,'11133222,11111222,99999999' 
TABS,ioos:station:wmo:42050:1,1997-08-02T16:00:00Z,28.8425,-94.2433,2.0,326.3102217,0.540832691,-99999.0,'11133222,11111222,99999999' 
TABS,ioos:station:wmo:42050:1,1997-08-02T16:30:00Z,28.8425,-94.2433,2.0,236.3095903,0.540832691,-99999.0,'11133222,11111222,99999999' 
TABS,ioos:station:wmo:42050:1,1997-08-02T17:00:00Z,28.8425,-94.2433,2.0,249.2854527,1.272242115,-99999.0,'11133222,11111222,99999999' 
TABS,ioos:station:wmo:42050:1,1997-08-02T17:30:00Z,28.8425,-94.2433,2.0,252.5086227,2.495375723,-99999.0,'11133222,11111222,99999999' 
TABS,ioos:station:wmo:42050:1,1997-08-02T18:00:00Z,28.8425,-94.2433,2.0,251.1157451,6.457569202,-99999.0,'11133222,11111222,99999999' 
TABS,ioos:station:wmo:42050:1,1997-08-02T18:30:00Z,28.8425,-94.2433,2.0,249.9043949,1.746310396,-99999.0,'11133222,11111222,99999999' 
TABS,ioos:station:wmo:42050:1,1997-08-02T19:00:00Z,28.8425,-94.2433,2.0,246.0569854,2.932319901,-99999.0,'11133222,11111222,99999999' 
TABS,ioos:station:wmo:42050:1,1997-08-02T19:30:00Z,28.8425,-94.2433,2.0,260.3397086,6.197878669,-99999.0,'11133222,11111222,99999999' 
TABS,ioos:station:wmo:42050:1,1997-08-02T20:00:00Z,28.8425,-94.2433,2.0,259.206895,9.559089915,-99999.0,'11133222,11111222,99999999' 
TABS,ioos:station:wmo:42050:1,1997-08-02T20:30:00Z,28.8425,-94.2433,2.0,264.3053166,10.48172219,-99999.0,'11111222,11111222,99999999' 
TABS,ioos:station:wmo:42050:1,1997-08-02T21:00:00Z,28.8425,-94.2433,2.0,251.5784035,13.19618505,-99999.0,'11111222,11111222,99999999' 
TABS,ioos:station:wmo:42050:1,1997-08-02T21:30:00Z,28.8425,-94.2433,2.0,228.686079,13.08734121,-99999.0,'11111222,11111222,99999999' 
TABS,ioos:station:wmo:42050:1,1997-08-02T22:00:00Z,28.8425,-94.2433,2.0,231.9721344,19.10589961,-99999.0,'11111222,11111222,99999999' 
TABS,ioos:station:wmo:42050:1,1997-08-02T22:30:00Z,28.8425,-94.2433,2.0,224.5906314,14.85669209,-99999.0,'11111222,11111222,99999999' 
TABS,ioos:station:wmo:42050:1,1997-08-02T23:00:00Z,28.8425,-94.2433,2.0,228.0446726,19.83406413,-99999.0,'11111222,11111222,99999999' 
TABS,ioos:station:wmo:42050:1,1997-08-02T23:30:00Z,28.8425,-94.2433,2.0,235.0383284,26.00242489,-99999.0,'11111222,11111222,99999999' 
TABS,ioos:station:wmo:42050:1,1997-08-03T00:00:00Z,28.8425,-94.2433,2.0,241.2914503,26.66811204,-99999.0,'11111222,11111222,99999999' 
TABS,ioos:station:wmo:42050:1,1997-08-03T00:30:00Z,28.8425,-94.2433,2.0,244.5085319,28.39410678,-99999.0,'11111222,11111222,99999999' 
TABS,ioos:station:wmo:42050:1,1997-08-03T01:00:00Z,28.8425,-94.2433,2.0,254.5577138,27.98005361,-99999.0,'11111222,11111222,99999999' 
TABS,ioos:station:wmo:42050:1,1997-08-03T01:30:00Z,28.8425,-94.2433,2.0,262.1331329,28.2760853,-99999.0,'11111222,11111222,99999999' 
TABS,ioos:station:wmo:42050:1,1997-08-03T02:00:00Z,28.8425,-94.2433,2.0,271.7546257,29.0736255,-99999.0,'11111222,11111222,99999999' 
TABS,ioos:station:wmo:42050:1,1997-08-03T02:30:00Z,28.8425,-94.2433,2.0,278.4319642,27.4163236,-99999.0,'11111222,11111222,99999999' 
TABS,ioos:station:wmo:42050:1,1997-08-03T03:00:00Z,28.8425,-94.2433,2.0,280.9177138,25.18582538,-99999.0,'11111222,11111222,99999999' 
TABS,ioos:station:wmo:42050:1,1997-08-03T03:30:00Z,28.8425,-94.2433,2.0,287.9133172,25.68508517,-99999.0,'11111222,11111222,99999999' 
TABS,ioos:station:wmo:42050:1,1997-08-03T04:00:00Z,28.8425,-94.2433,2.0,298.0930685,24.99470744,-99999.0,'11111222,11111222,99999999' 
TABS,ioos:station:wmo:42050:1,1997-08-03T04:30:00Z,28.8425,-94.2433,2.0,303.6904097,26.32052431,-99999.0,'11111222,11111222,99999999' 
TABS,ioos:station:wmo:42050:1,1997-08-03T05:00:00Z,28.8425,-94.2433,2.0,309.0825269,28.59931643,-99999.0,'11111222,11111222,99999999' 
TABS,ioos:station:wmo:42050:1,1997-08-03T05:30:00Z,28.8425,-94.2433,2.0,312.490064,28.89890136,-99999.0,'11111222,11111222,99999999' 
TABS,ioos:station:wmo:42050:1,1997-08-03T06:00:00Z,28.8425,-94.2433,2.0,317.2439092,29.62219776,-99999.0,'11111222,11111222,99999999' 
TABS,ioos:station:wmo:42050:1,1997-08-03T06:30:00Z,28.8425,-94.2433,2.0,320.2264765,30.04257812,-99999.0,'11111222,11111222,99999999' 
TABS,ioos:station:wmo:42050:1,1997-08-03T07:00:00Z,28.8425,-94.2433,2.0,323.883682,32.09877412,-99999.0,'11111222,11111222,99999999' 
TABS,ioos:station:wmo:42050:1,1997-08-03T07:30:00Z,28.8425,-94.2433,2.0,328.3559528,34.6520187,-99999.0,'11111222,11111222,99999999' 
TABS,ioos:station:wmo:42050:1,1997-08-03T08:00:00Z,28.8425,-94.2433,2.0,331.0313417,35.07899942,-99999.0,'11111222,11111222,99999999' 
TABS,ioos:station:wmo:42050:1,1997-08-03T08:30:00Z,28.8425,-94.2433,2.0,333.3228037,34.18954519,-99999.0,'11111222,11111222,99999999' 
TABS,ioos:station:wmo:42050:1,1997-08-03T09:00:00Z,28.8425,-94.2433,2.0,338.6855239,32.79312275,-99999.0,'11111222,11111222,99999999' 
TABS,ioos:station:wmo:42050:1,1997-08-03T09:30:00Z,28.8425,-94.2433,2.0,342.3421472,27.98872987,-99999.0,'11111222,11111222,99999999' 
TABS,ioos:station:wmo:42050:1,1997-08-03T10:00:00Z,28.8425,-94.2433,2.0,348.4013894,23.72447049,-99999.0,'11111222,11111222,99999999' 
TABS,ioos:station:wmo:42050:1,1997-08-03T10:30:00Z,28.8425,-94.2433,2.0,350.7927708,21.43619602,-99999.0,'11111222,11111222,99999999' 
TABS,ioos:station:wmo:42050:1,1997-08-03T11:00:00Z,28.8425,-94.2433,2.0,355.9167725,18.81777086,-99999.0,'11111222,11111222,99999999' 
TABS,ioos:station:wmo:42050:1,1997-08-03T11:30:00Z,28.8425,-94.2433,2.0,0.476868726,18.03062395,-99999.0,'11111222,11111222,99999999' 
TABS,ioos:station:wmo:42050:1,1997-08-03T12:00:00Z,28.8425,-94.2433,2.0,356.7453696,15.67528628,-99999.0,'11111222,11111222,99999999' 
TABS,ioos:station:wmo:42050:1,1997-08-03T12:30:00Z,28.8425,-94.2433,2.0,4.385980726,13.59982353,-99999.0,'11111222,11111222,99999999' 
TABS,ioos:station:wmo:42050:1,1997-08-03T13:00:00Z,28.8425,-94.2433,2.0,11.95268999,12.9405564,-99999.0,'11111222,11111222,99999999' 
TABS,ioos:station:wmo:42050:1,1997-08-03T13:30:00Z,28.8425,-94.2433,2.0,16.51316471,14.14333765,-99999.0,'11111222,11111222,99999999' 
TABS,ioos:station:wmo:42050:1,1997-08-03T14:00:00Z,28.8425,-94.2433,2.0,19.25100191,13.10264477,-99999.0,'11111222,11111222,99999999' 
TABS,ioos:station:wmo:42050:1,1997-08-03T14:30:00Z,28.8425,-94.2433,2.0,25.97045639,12.92516924,-99999.0,'11111222,11111222,99999999' 
TABS,ioos:station:wmo:42050:1,1997-08-03T15:00:00Z,28.8425,-94.2433,2.0,19.00051537,9.613792176,-99999.0,'11133222,11111222,99999999' 
TABS,ioos:station:wmo:42050:1,1997-08-03T15:30:00Z,28.8425,-94.2433,2.0,29.34648036,8.202615437,-99999.0,'11133222,11111222,99999999' 
TABS,ioos:station:wmo:42050:1,1997-08-03T16:00:00Z,28.8425,-94.2433,2.0,36.38102398,7.030256041,-99999.0,'11133222,11111222,99999999' 
TABS,ioos:station:wmo:42050:1,1997-08-03T16:30:00Z,28.8425,-94.2433,2.0,12.33428709,3.511039732,-99999.0,'11133222,11111222,99999999' 
TABS,ioos:station:wmo:42050:1,1997-08-03T17:00:00Z,28.8425,-94.2433,2.0,36.27063043,5.544303383,-99999.0,'11133222,11111222,99999999' 
TABS,ioos:station:wmo:42050:1,1997-08-03T17:30:00Z,28.8425,-94.2433,2.0,35.3732305,5.665933286,-99999.0,'11133222,11111222,99999999' 
TABS,ioos:station:wmo:42050:1,1997-08-03T18:00:00Z,28.8425,-94.2433,2.0,33.17465542,4.623613306,-99999.0,'11133222,11111222,99999999' 
TABS,ioos:station:wmo:42050:1,1997-08-03T18:30:00Z,28.8425,-94.2433,2.0,19.94118237,3.489197615,-99999.0,'11133222,11111222,99999999' 
TABS,ioos:station:wmo:42050:1,1997-08-03T19:00:00Z,28.8425,-94.2433,2.0,14.14965346,2.454465319,-99999.0,'11133222,11111222,99999999' 
TABS,ioos:station:wmo:42050:1,1997-08-03T19:30:00Z,28.8425,-94.2433,2.0,8.207407679,1.050761629,-99999.0,'11133222,11111222,99999999' 
TABS,ioos:station:wmo:42050:1,1997-08-03T20:00:00Z,28.8425,-94.2433,2.0,281.3842568,1.519901313,-99999.0,'11133222,11111222,99999999' 
TABS,ioos:station:wmo:42050:1,1997-08-03T20:30:00Z,28.8425,-94.2433,2.0,249.18324,3.348581789,-99999.0,'11133222,11111222,99999999' 
TABS,ioos:station:wmo:42050:1,1997-08-03T21:00:00Z,28.8425,-94.2433,2.0,239.7166346,6.206971887,-99999.0,'11133222,11111222,99999999' 
TABS,ioos:station:wmo:42050:1,1997-08-03T21:30:00Z,28.8425,-94.2433,2.0,233.9774835,8.110887744,-99999.0,'11133222,11111222,99999999' 
TABS,ioos:station:wmo:42050:1,1997-08-03T22:00:00Z,28.8425,-94.2433,2.0,234.4489892,10.25071705,-99999.0,'11111222,11111222,99999999' 
TABS,ioos:station:wmo:42050:1,1997-08-03T22:30:00Z,28.8425,-94.2433,2.0,228.4470631,12.34721426,-99999.0,'11111222,11111222,99999999' 
TABS,ioos:station:wmo:42050:1,1997-08-03T23:00:00Z,28.8425,-94.2433,2.0,229.224661,15.74054637,-99999.0,'11111222,11111222,99999999' 
TABS,ioos:station:wmo:42050:1,1997-08-03T23:30:00Z,28.8425,-94.2433,2.0,231.4766809,19.62016565,-99999.0,'11111222,11111222,99999999' 
TABS,ioos:station:wmo:42050:1,1997-08-04T00:00:00Z,28.8425,-94.2433,2.0,239.7145381,21.57432038,-99999.0,'11111222,11111222,99999999' 
TABS,ioos:station:wmo:42050:1,1997-08-04T00:30:00Z,28.8425,-94.2433,2.0,244.4176409,23.45980605,-99999.0,'11111222,11111222,99999999' 
TABS,ioos:station:wmo:42050:1,1997-08-04T01:00:00Z,28.8425,-94.2433,2.0,248.4227584,22.27061292,-99999.0,'11111222,11111222,99999999' 
TABS,ioos:station:wmo:42050:1,1997-08-04T01:30:00Z,28.8425,-94.2433,2.0,254.775493,22.69651075,-99999.0,'11111222,11111222,99999999' 
TABS,ioos:station:wmo:42050:1,1997-08-04T02:00:00Z,28.8425,-94.2433,2.0,261.0981915,22.16697769,-99999.0,'11111222,11111222,99999999' 
TABS,ioos:station:wmo:42050:1,1997-08-04T02:30:00Z,28.8425,-94.2433,2.0,270.7961426,21.60208323,-99999.0,'11111222,11111222,99999999' 
TABS,ioos:station:wmo:42050:1,1997-08-04T03:00:00Z,28.8425,-94.2433,2.0,284.1204846,23.20098274,-99999.0,'11111222,11111222,99999999' 
TABS,ioos:station:wmo:42050:1,1997-08-04T03:30:00Z,28.8425,-94.2433,2.0,293.9678081,23.48495689,-99999.0,'11111222,11111222,99999999' 
TABS,ioos:station:wmo:42050:1,1997-08-04T04:00:00Z,28.8425,-94.2433,2.0,303.3148103,24.96204519,-99999.0,'11111222,11111222,99999999' 
TABS,ioos:station:wmo:42050:1,1997-08-04T04:30:00Z,28.8425,-94.2433,2.0,307.8910923,25.48204466,-99999.0,'11111222,11111222,99999999' 
TABS,ioos:station:wmo:42050:1,1997-08-04T05:00:00Z,28.8425,-94.2433,2.0,316.2966397,27.8176293,-99999.0,'11111222,11111222,99999999' 
TABS,ioos:station:wmo:42050:1,1997-08-04T05:30:00Z,28.8425,-94.2433,2.0,319.6819987,28.32929403,-99999.0,'11111222,11111222,99999999' 
TABS,ioos:station:wmo:42050:1,1997-08-04T06:00:00Z,28.8425,-94.2433,2.0,325.6593493,29.05429744,-99999.0,'11111222,11111222,99999999' 
TABS,ioos:station:wmo:42050:1,1997-08-04T06:30:00Z,28.8425,-94.2433,2.0,330.0414921,29.23643104,-99999.0,'11111222,11111222,99999999' 
TABS,ioos:station:wmo:42050:1,1997-08-04T07:00:00Z,28.8425,-94.2433,2.0,335.053218,30.72688074,-99999.0,'11111222,11111222,99999999' 
TABS,ioos:station:wmo:42050:1,1997-08-04T07:30:00Z,28.8425,-94.2433,2.0,340.9999055,28.84137653,-99999.0,'11111222,11111222,99999999' 
TABS,ioos:station:wmo:42050:1,1997-08-04T08:00:00Z,28.8425,-94.2433,2.0,343.4120663,27.67165337,-99999.0,'11111222,11111222,99999999' 
TABS,ioos:station:wmo:42050:1,1997-08-04T08:30:00Z,28.8425,-94.2433,2.0,349.4111969,27.58984052,-99999.0,'11111222,11111222,99999999' 
TABS,ioos:station:wmo:42050:1,1997-08-04T09:00:00Z,28.8425,-94.2433,2.0,355.0848352,26.02571421,-99999.0,'11111222,11111222,99999999' 
TABS,ioos:station:wmo:42050:1,1997-08-04T09:30:00Z,28.8425,-94.2433,2.0,358.1036966,22.66241382,-99999.0,'11111222,11111222,99999999' 
TABS,ioos:station:wmo:42050:1,1997-08-04T10:00:00Z,28.8425,-94.2433,2.0,0.000210459,22.5,-99999.0,'11111222,11111222,99999999' 
TABS,ioos:station:wmo:42050:1,1997-08-04T10:30:00Z,28.8425,-94.2433,2.0,3.988354585,19.26665513,-99999.0,'11111222,11111222,99999999' 
TABS,ioos:station:wmo:42050:1,1997-08-04T11:00:00Z,28.8425,-94.2433,2.0,12.0477879,17.82255032,-99999.0,'11111222,11111222,99999999' 
TABS,ioos:station:wmo:42050:1,1997-08-04T11:30:00Z,28.8425,-94.2433,2.0,13.09602004,13.15205307,-99999.0,'11111222,11111222,99999999' 
TABS,ioos:station:wmo:42050:1,1997-08-04T12:00:00Z,28.8425,-94.2433,2.0,23.10590521,12.15505245,-99999.0,'11111222,11111222,99999999' 
TABS,ioos:station:wmo:42050:1,1997-08-04T12:30:00Z,28.8425,-94.2433,2.0,31.81437476,10.16755625,-99999.0,'11111222,11111222,99999999' 
TABS,ioos:station:wmo:42050:1,1997-08-04T13:00:00Z,28.8425,-94.2433,2.0,47.51931806,9.491475122,-99999.0,'11133222,11111222,99999999' 
TABS,ioos:station:wmo:42050:1,1997-08-04T13:30:00Z,28.8425,-94.2433,2.0,54.55148681,8.224530382,-99999.0,'11133222,11111222,99999999' 
TABS,ioos:station:wmo:42050:1,1997-08-04T14:00:00Z,28.8425,-94.2433,2.0,61.84876769,7.270006878,-99999.0,'11133222,11111222,99999999' 
TABS,ioos:station:wmo:42050:1,1997-08-04T14:30:00Z,28.8425,-94.2433,2.0,85.81000207,8.211948612,-99999.0,'11133222,11111222,99999999' 
TABS,ioos:station:wmo:42050:1,1997-08-04T15:00:00Z,28.8425,-94.2433,2.0,94.18999793,8.211948612,-99999.0,'11133222,11111222,99999999' 
TABS,ioos:station:wmo:42050:1,1997-08-04T15:30:00Z,28.8425,-94.2433,2.0,98.89903554,7.692600341,-99999.0,'11133222,11111222,99999999' 
TABS,ioos:station:wmo:42050:1,1997-08-04T16:00:00Z,28.8425,-94.2433,2.0,105.6707322,7.73760945,-99999.0,'11133222,11111222,99999999' 